FW5974 Weather Reports


Display with metric or nautical units.
time (UTC)temp
F
wind
direction
speed
MPH
gust
MPH
rain 1hr
in
rain 24hr
in
rain mn
in
humidity
%
barometer
mb
20260507113448 46 279 2.0 3.0 0.00 0.18 0.01 90 1084.4
20260507112447 45 123 0.0 0.0 0.00 0.18 0.01 94 1084.4
20260507111448 44 67 0.0 0.0 0.00 0.18 0.01 95 1084.3
20260507110531 43 67 0.0 0.0 0.00 0.18 0.01 94 1084.3
20260507105629 43 67 0.0 0.0 0.00 0.18 0.01 93 1084.2
20260507104632 43 67 0.0 0.0 0.00 0.18 0.01 93 1084.1
20260507103647 43 55 0.0 0.0 0.00 0.18 0.01 95 1083.8
20260507102647 43 45 0.0 0.0 0.00 0.18 0.01 94 1083.7
20260507101648 43 59 0.0 0.0 0.00 0.18 0.01 95 1083.8
20260507095747 43 90 0.0 0.0 0.00 0.18 0.01 95 1084.0
20260507095629 43 90 0.0 0.0 0.00 0.18 0.01 94 1083.8
20260507094648 44 90 0.0 0.0 0.00 0.18 0.01 95 1083.4
20260507093650 44 90 0.0 0.0 0.00 0.18 0.01 93 1084.0
20260507092634 44 270 0.0 0.0 0.00 0.18 0.01 94 1083.8
20260507091731 44 270 0.0 0.0 0.00 0.18 0.01 94 1084.1
20260507090731 44 45 0.0 0.0 0.00 0.18 0.01 94 1084.0
20260507085731 44 90 0.0 0.0 0.00 0.18 0.01 95 1084.2
20260507083732 44 112 0.0 0.0 0.01 0.18 0.01 94 1084.3
20260507082748 44 135 0.0 0.0 0.01 0.18 0.01 94 1083.8
20260507081830 44 90 0.0 0.0 0.01 0.18 0.01 94 1084.1
20260507080847 44 90 0.0 0.0 0.01 0.18 0.01 93 1084.2
20260507075832 44 90 0.0 0.0 0.01 0.18 0.01 91 1083.5
20260507074930 44 45 0.0 0.0 0.01 0.18 0.01 91 1083.4
20260507073948 45 360 0.0 1.0 0.00 0.17 0.00 91 1083.5
20260507072932 45 180 0.0 0.0 0.00 0.17 0.00 91 1084.1
20260507070046 46 135 0.0 0.0 0.00 0.17 0.00 88 1083.3
20260507065052 46 64 0.0 0.0 0.00 0.17 0.00 88 1083.3
20260507064046 46 20 0.0 4.0 0.00 0.17 0.00 89 1083.3
20260507063049 46 270 0.0 0.0 0.00 0.17 0.00 89 1083.3
20260507062129 47 259 1.0 3.0 0.00 0.17 0.00 90 1083.3
20260507061148 47 67 0.0 0.0 0.00 0.17 0.00 88 1083.1
20260507060131 47 337 0.0 0.0 0.00 0.17 0.00 89 1083.3
20260507054247 48 112 0.0 0.0 0.00 0.17 0.00 90 1083.5
20260507054132 48 124 0.0 0.0 0.00 0.17 0.00 90 1083.5
20260507053146 48 270 0.0 0.0 0.00 0.17 0.00 89 1083.8
20260507052130 48 157 0.0 0.0 0.00 0.17 0.00 90 1083.8
20260507051147 48 214 0.0 2.0 0.00 0.17 0.00 91 1083.6
20260507050149 48 282 0.0 0.0 0.00 0.17 0.00 92 1083.9
20260507045147 48 135 0.0 0.0 0.00 0.17 0.00 92 1083.6
20260507044230 49 135 0.0 0.0 0.00 0.17 0.00 92 1083.5
20260507043246 49 135 0.0 0.0 0.00 0.17 0.00 91 1083.3
20260507042330 49 140 0.0 0.0 0.00 0.17 0.00 91 1083.3
20260507040347 50 246 0.0 3.0 0.00 0.17 0.00 90 1083.3
20260507035411 50 298 4.0 8.0 0.01 0.17 0.17 92 1083.4
20260507034409 51 255 2.0 5.0 0.01 0.17 0.17 93 1083.2
20260507033410 51 246 2.0 4.0 0.01 0.17 0.17 94 1083.1
20260507031510 51 313 5.0 8.0 0.03 0.17 0.17 92 1082.7
20260507030525 52 270 0.0 0.0 0.03 0.17 0.17 92 1082.8
20260507025527 52 270 0.0 0.0 0.02 0.16 0.16 91 1082.7
20260507023626 54 266 4.0 11.0 0.04 0.16 0.16 93 1082.7
20260507022611 55 293 1.0 3.0 0.03 0.15 0.14 94 1083.2
20260507020711 56 291 5.0 9.0 0.02 0.14 0.14 94 1082.4
20260507015710 57 263 7.0 12.0 0.02 0.14 0.14 95 1082.0
20260507014726 57 256 4.0 6.0 0.01 0.13 0.13 95 1082.0
20260507013726 57 232 2.0 6.0 0.00 0.12 0.12 95 1082.2
20260507012727 58 215 1.0 5.0 0.00 0.12 0.12 94 1082.0
20260507010811 58 201 0.0 4.0 0.00 0.12 0.12 94 1081.8
20260507005825 58 188 1.0 9.0 0.00 0.12 0.12 93 1082.0
20260507004828 58 221 0.0 2.0 0.00 0.12 0.12 93 1081.8
20260507003910 58 230 0.0 1.0 0.00 0.12 0.12 92 1081.9
20260507003009 58 244 3.0 6.0 0.00 0.12 0.12 92 1081.7
20260507002026 58 188 0.0 2.0 0.00 0.12 0.12 92 1081.4
20260507001110 58 251 3.0 5.0 0.00 0.12 0.12 93 1081.3
20260507001026 58 218 1.0 4.0 0.00 0.12 0.12 92 1081.4
20260506235025 58 209 0.0 3.0 0.00 0.12 0.12 93 1081.4
20260506234011 58 187 0.0 0.0 0.00 0.12 0.12 93 1081.2
20260506233011 58 204 0.0 1.0 0.00 0.12 0.12 93 1081.0
20260506232027 58 173 0.0 2.0 0.00 0.12 0.12 93 1081.2
20260506231111 58 195 0.0 0.0 0.00 0.12 0.12 93 1081.1
20260506231025 58 191 0.0 0.0 0.00 0.12 0.12 92 1081.2
20260506230010 58 228 0.0 0.0 0.00 0.12 0.12 92 1081.4
20260506225026 58 202 0.0 3.0 0.00 0.12 0.12 92 1081.3
20260506224026 58 237 1.0 5.0 0.00 0.12 0.12 93 1081.4
20260506221127 58 248 3.0 10.0 0.00 0.12 0.12 93 1081.4
20260506220211 58 197 1.0 9.0 0.02 0.12 0.12 94 1081.7
20260506215308 58 224 1.0 7.0 0.03 0.12 0.12 94 1081.6
20260506214309 58 187 0.0 2.0 0.03 0.12 0.12 93 1081.5
20260506213327 58 206 1.0 10.0 0.03 0.12 0.12 93 1081.6
20260506211411 58 166 0.0 3.0 0.04 0.12 0.12 93 1081.5
20260506210411 58 192 0.0 3.0 0.04 0.11 0.10 93 1081.7
20260506205326 59 211 1.0 7.0 0.03 0.09 0.09 94 1081.7
20260506204311 59 197 2.0 10.0 0.03 0.09 0.09 94 1082.0
20260506203325 59 176 0.0 0.0 0.04 0.09 0.09 92 1082.0
20260506202326 59 205 0.0 6.0 0.04 0.08 0.08 92 1082.0
20260506201325 59 190 0.0 4.0 0.03 0.07 0.07 93 1082.2
20260506200309 59 197 1.0 5.0 0.03 0.07 0.07 93 1082.2
20260506200225 59 207 1.0 9.0 0.03 0.07 0.06 93 1082.3
20260506193410 60 189 0.0 0.0 0.02 0.05 0.05 90 1082.5
20260506193326 60 171 0.0 2.0 0.02 0.05 0.05 90 1082.8
20260506192327 60 215 2.0 9.0 0.01 0.04 0.04 90 1082.6
20260506191426 60 223 0.0 4.0 0.01 0.04 0.04 91 1082.6
20260506185425 60 195 0.0 4.0 0.03 0.04 0.04 90 1082.4
20260506184411 60 154 0.0 4.0 0.03 0.04 0.04 90 1082.5
20260506180610 61 204 0.0 0.0 0.02 0.02 0.02 87 1083.5
20260506175611 61 191 0.0 0.0 0.02 0.02 0.01 84 1083.8
20260506174625 62 212 0.0 2.0 0.01 0.01 0.01 80 1083.7
20260506173627 62 186 0.0 0.0 0.00 0.00 0.00 77 1084.0
20260506171625 64 204 3.0 7.0 0.00 0.00 0.00 70 1083.7
20260506171512 64 204 5.0 9.0 0.00 0.00 0.00 70 1083.7
20260506170609 65 236 3.0 6.0 0.00 0.00 0.00 68 1083.8
20260506164724 65 155 7.0 11.0 0.00 0.00 0.00 68 1083.7
20260506163710 65 209 3.0 6.0 0.00 0.00 0.00 67 1083.9
20260506162711 66 257 6.0 13.0 0.00 0.00 0.00 67 1084.0
20260506161724 65 250 6.0 10.0 0.00 0.00 0.00 66 1084.0
20260506155726 66 228 3.0 7.0 0.00 0.00 0.00 66 1084.4
20260506154825 66 250 7.0 12.0 0.00 0.00 0.00 65 1084.4
20260506153811 66 212 1.0 7.0 0.00 0.00 0.00 66 1084.7
20260506152827 66 250 3.0 7.0 0.00 0.00 0.00 66 1084.8
20260506151826 66 178 12.0 17.0 0.00 0.00 0.00 67 1084.9
20260506150911 66 177 2.0 8.0 0.00 0.00 0.00 66 1085.1
20260506145925 66 202 3.0 9.0 0.00 0.00 0.00 65 1085.1
20260506145011 67 204 7.0 13.0 0.00 0.00 0.00 65 1085.1
20260506144011 67 196 0.0 6.0 0.00 0.00 0.00 66 1084.7
20260506143025 67 184 2.0 8.0 0.00 0.00 0.00 65 1085.1
20260506142109 67 257 6.0 10.0 0.00 0.00 0.00 67 1084.8
20260506141126 66 248 5.0 8.0 0.00 0.00 0.00 69 1084.6
20260506140125 65 189 1.0 4.0 0.00 0.00 0.00 69 1084.7
20260506134225 65 189 3.0 7.0 0.00 0.00 0.00 72 1084.4
20260506133310 64 244 2.0 6.0 0.00 0.00 0.00 71 1084.7
20260506132325 64 203 2.0 7.0 0.00 0.00 0.00 73 1085.0
20260506131309 64 231 2.0 7.0 0.00 0.00 0.00 73 1084.8
20260506130326 64 237 4.0 9.0 0.00 0.00 0.00 73 1084.9
20260506125409 63 211 4.0 15.0 0.00 0.00 0.00 74 1084.9
20260506124426 63 230 2.0 14.0 0.00 0.00 0.00 76 1085.0
20260506123425 62 238 6.0 9.0 0.00 0.00 0.00 76 1085.2
20260506122510 62 196 8.0 17.0 0.00 0.00 0.00 78 1085.1
20260506121608 61 250 5.0 14.0 0.00 0.00 0.00 77 1085.1
20260506120612 61 189 0.0 1.0 0.00 0.00 0.00 78 1085.1
20260506114610 61 181 0.0 0.0 0.00 0.00 0.00 79 1085.3
20260506113708 60 220 0.0 1.0 0.00 0.00 0.00 80 1085.3